Weather History for PAFB - March, 2014

Change the Weather History Date:

Wednesday, March 19, 2014

  Actual Average Record
Temperature  
Mean Temperature 10 °F -  
Max Temperature 21 °F 23 °F 46 °F (1998)
Min Temperature -6 °F 1 °F -22 °F (2009)
Degree Days  
Heating Degree Days 56    
Moisture  
Dew Point 10 °F    
Average Humidity 76    
Maximum Humidity 87    
Minimum Humidity 63    
Precipitation  
Precipitation 0.02 in - - ()
Snow  
Snow 0.00 in - - ()
Snow Depth 22.00 in    
Sea Level Pressure  
Sea Level Pressure 30.31 in    
Wind  
Wind Speed 9 mph (WSW)    
Max Wind Speed 16 mph    
Max Gust Speed -    
Visibility 6 miles    
Events Snow    
Averages and records for this station are not official NWS values.
T = Trace of Precipitation, MM = Missing Value Source: NWS Daily Summary

Daily Weather History Graph

Daily Weather History Graph

Search for Another Location

Airport or City:

Trip Planner

Search our weather history database for the weather conditions in past years. The results will help you decide how hot, cold, wet, or windy it might be!

Date:

Astronomy

Mar. 19, 2014 Rise Set
Actual Time 7:53 AM AKDT 8:04 PM AKDT
Civil Twilight 7:04 AM AKDT 8:53 PM AKDT
Nautical Twilight 6:05 AM AKDT 9:53 PM AKDT
Astronomical Twilight 4:57 AM AKDT 11:02 PM AKDT
Moon No Moon Rise 8:15 AM AKDT (3/19)
Length of Visible Light 13h 48m
Length of Day
12h 10m
Waning Gibbous, 90% of the Moon is Illuminated
Mar 19
Waning Gibbous
Mar 23
Last Quarter
Mar 30
New
Apr 7
First Quarter
Apr 14
Full

Hourly Weather History & Observations

Time (AKDT) Temp. Windchill Dew Point Humidity Pressure Visibility Wind Dir Wind Speed Gust Speed Precip Events Conditions
12:56 AM 17.1 °F 11.7 °F 9.0 °F 71% 30.10 in 10.0 mi SW 3.5 mph - N/A   Overcast
1:56 AM 18.0 °F 12.7 °F 12.0 °F 78% 30.13 in 5.0 mi WSW 3.5 mph - 0.00 in Snow Light Snow
2:27 AM 21.2 °F 8.9 °F 17.6 °F 86% 30.11 in 2.5 mi West 12.7 mph - 0.00 in Snow Light Snow
2:53 AM 21.2 °F 8.3 °F 17.6 °F 86% 30.13 in 4.0 mi WSW 13.8 mph - 0.00 in Snow Light Snow
2:56 AM 21.9 °F 9.8 °F 16.0 °F 78% 30.16 in 4.0 mi WSW 12.7 mph - 0.00 in Snow Light Snow
3:11 AM 21.2 °F 8.9 °F 15.8 °F 80% 30.14 in 1.8 mi WSW 12.7 mph - 0.00 in Snow Light Snow
3:28 AM 21.2 °F 9.5 °F 15.8 °F 80% 30.14 in 2.5 mi WSW 11.5 mph - 0.00 in Snow Light Snow
3:35 AM 21.2 °F 8.9 °F 15.8 °F 80% 30.14 in - West 12.7 mph - 0.00 in Snow Light Snow
3:56 AM 19.9 °F 9.3 °F 15.1 °F 81% 30.19 in 3.0 mi WSW 9.2 mph - 0.00 in Snow Light Snow
4:19 AM 19.4 °F 5.5 °F 15.8 °F 86% 30.17 in - WSW 15.0 mph - 0.00 in Snow Light Snow
4:49 AM 19.4 °F 6.6 °F 14.0 °F 80% 30.18 in 4.0 mi WSW 12.7 mph - 0.00 in Snow Light Snow
4:56 AM 19.9 °F 5.7 °F 14.0 °F 78% 30.22 in 3.0 mi WSW 16.1 mph - 0.00 in Snow Light Snow
5:30 AM 19.4 °F 5.5 °F 12.2 °F 74% 30.20 in 2.5 mi WSW 15.0 mph - 0.00 in Snow Light Snow
5:38 AM 19.4 °F 5.5 °F 12.2 °F 74% 30.21 in 4.0 mi WSW 15.0 mph - 0.00 in Snow Light Snow
5:56 AM 18.0 °F 4.2 °F 12.0 °F 78% 30.25 in 5.0 mi WSW 13.8 mph - 0.00 in Snow Light Snow
6:30 AM 17.6 °F 5.0 °F 12.2 °F 79% 30.22 in 6.0 mi WSW 11.5 mph - N/A Snow Light Snow
6:43 AM 17.6 °F 5.0 °F 12.2 °F 79% 30.24 in 2.5 mi WSW 11.5 mph - N/A Snow Light Snow
6:55 AM 17.6 °F 3.7 °F 12.2 °F 79% 30.27 in 2.5 mi West 13.8 mph - N/A Snow Light Snow
7:27 AM 17.6 °F 3.7 °F 10.4 °F 73% 30.26 in 3.0 mi WSW 13.8 mph - N/A Snow Light Snow
7:55 AM 17.6 °F 3.7 °F 10.4 °F 73% 30.30 in 2.5 mi WSW 13.8 mph - N/A Snow Light Snow
8:32 AM 15.8 °F 4.2 °F 10.4 °F 79% 30.29 in 1.5 mi WSW 9.2 mph - N/A Snow Light Snow
8:55 AM 15.8 °F 2.7 °F 10.4 °F 79% 30.32 in 1.5 mi WSW 11.5 mph - N/A Snow Light Snow
9:55 AM 15.8 °F 3.4 °F 10.4 °F 79% 30.35 in 2.0 mi WSW 10.4 mph - N/A Snow Light Snow
10:42 AM 15.8 °F 6.1 °F 10.4 °F 79% 30.33 in 2.5 mi WSW 6.9 mph - N/A Snow Light Snow
10:55 AM 15.8 °F 5.1 °F 10.4 °F 79% 30.37 in 2.5 mi WSW 8.1 mph - N/A Snow Light Snow
11:13 AM 15.8 °F 6.1 °F 10.4 °F 79% 30.34 in 3.0 mi WSW 6.9 mph - N/A Snow Light Snow
11:55 AM 17.6 °F 8.2 °F 10.4 °F 73% 30.40 in 5.0 mi West 6.9 mph - N/A Snow Light Snow
12:55 PM 17.6 °F 6.4 °F 10.4 °F 73% 30.41 in 5.0 mi WSW 9.2 mph - N/A Snow Light Snow
1:55 PM 19.4 °F 11.5 °F 10.4 °F 68% 30.43 in 6.0 mi WSW 5.8 mph - N/A Snow Light Snow
2:50 PM 19.4 °F 11.5 °F 10.4 °F 68% 30.44 in 6.0 mi WSW 5.8 mph - N/A Snow Light Snow
2:55 PM 19.4 °F 11.5 °F 10.4 °F 68% 30.44 in 6.0 mi WSW 5.8 mph - N/A Snow Light Snow
3:35 PM 21.2 °F 12.6 °F 10.4 °F 63% 30.41 in 13.0 mi SW 6.9 mph - N/A   Mostly Cloudy
3:55 PM 19.4 °F 10.4 °F 10.4 °F 68% 30.44 in 13.0 mi SSW 6.9 mph - N/A Snow Light Snow
4:35 PM 19.4 °F 9.5 °F 8.6 °F 63% 30.42 in 13.0 mi SW 8.1 mph - N/A   Mostly Cloudy
4:55 PM 19.4 °F 10.4 °F 8.6 °F 63% 30.45 in 13.0 mi SW 6.9 mph - N/A   Mostly Cloudy
5:55 PM 19.4 °F 11.5 °F 8.6 °F 63% 30.46 in 13.0 mi SW 5.8 mph - N/A   Mostly Cloudy
6:55 PM 19.4 °F 11.5 °F 8.6 °F 63% 30.47 in 13.0 mi SW 5.8 mph - N/A   Mostly Cloudy
7:55 PM 12.2 °F - 3.2 °F 67% 30.48 in 13.0 mi Calm Calm - N/A   Mostly Cloudy
8:55 PM 5.0 °F - 1.4 °F 85% 30.50 in 13.0 mi Calm Calm - N/A   Scattered Clouds
9:55 PM 3.2 °F - -0.4 °F 85% 30.51 in 13.0 mi Calm Calm - N/A   Scattered Clouds
10:56 PM -2.0 °F - -5.1 °F 87% 30.53 in 10.0 mi Calm Calm - N/A   Clear
11:56 PM -6.0 °F - -9.0 °F 87% 30.54 in 10.0 mi Calm Calm - N/A   Clear